Home   Weather   Jalalabad   Past weeks
Flag for Afghanistan

Past Weather in Jalalabad, Afghanistan — Yesterday and Last 2 Weeks

Now
81 °F

Haze.


Feels Like: 81 °F
Forecast: 95 / 65 °F
Wind: 7 mph from Northeast

Location: Peshawar Airport

Current Time: May 25, 2019 at 9:45:23 pm

Latest Report: May 25, 2019 at 9:00 pm


Visibility: 4 mi

Pressure: 29.68 "Hg (27.81 "Hg at 572m altitude)

Humidity: 45%

Dew Point: 57 °F

Location of JalalabadLocation

Past Weather in Jalalabad — Graph

°F

Jalalabad Temperature Yesterday

Maximum temperature yesterday: 81 °F (at 11:00 am)
Minimum temperature yesterday: 66 °F (at 10:30 pm)
Average temperature yesterday: 72 °F

High & Low Weather Summary for the Past Weeks

 TemperatureHumidityPressure
High99 °F (May 13, 3:30 pm)88% (May 24, 10:30 pm)29.95 "Hg (May 24, 10:30 pm)
Low64 °F (May 25, 3:30 am)25% (May 21, 3:30 pm)29.59 "Hg (May 13, 3:30 pm)
Average81 °F49%29.78 "Hg
* Reported May 10 8:30 pm — May 25 8:30 pm, Jalalabad. Weather by CustomWeather, © 2019

Note: Actual official high and low records may vary slightly from our data, if they occured in-between our weather recording intervals... More about our weather records

Advertising

Jalalabad Weather History for the Previous 24 Hours

Scroll right to see more
 ConditionsComfort  
Time TempWeatherWind HumidityBarometerVisibility
8:30 pm
Sat, May 25
81 °FHaze.7 mph45%29.68 "Hg4 mi
7:30 pm82 °FHaze.7 mph42%29.68 "Hg4 mi
7:00 pm86 °FHaze.7 mph40%29.68 "Hg5 mi
6:30 pm86 °FHaze.7 mph40%29.68 "Hg5 mi
5:30 pm88 °FPassing clouds.7 mph38%29.68 "HgN/A
5:00 pm88 °FPassing clouds.9 mph38%29.71 "HgN/A
4:30 pm88 °FPassing clouds.9 mph38%29.71 "HgN/A
4:00 pm90 °FPassing clouds.9 mph36%29.71 "HgN/A
3:30 pm90 °FPassing clouds.9 mph36%29.71 "HgN/A
3:00 pm91 °FHot.7 mph38%29.71 "HgN/A
2:30 pm91 °FHot.7 mph38%29.71 "HgN/A
2:00 pm88 °FWarm.7 mph40%29.74 "HgN/A
1:30 pm88 °FWarm.7 mph40%29.74 "HgN/A
12:30 pm86 °FWarm.7 mph40%29.77 "HgN/A
11:30 am84 °FWarm.7 mph45%29.80 "HgN/A
10:30 am82 °FSunny.7 mph51%29.80 "HgN/A
9:30 am79 °FSunny.5 mph51%29.83 "HgN/A
8:30 am77 °FPassing clouds.7 mph54%29.83 "HgN/A
7:30 am77 °FPassing clouds.7 mph54%29.83 "HgN/A
6:30 am70 °FPassing clouds.7 mph69%29.80 "HgN/A
6:00 am64 °FHaze.7 mph88%29.77 "Hg4 mi
5:30 am64 °FHaze.7 mph88%29.77 "Hg4 mi
4:30 am64 °FHaze.7 mph88%29.77 "Hg2 mi
3:30 am64 °FHaze.7 mph88%29.77 "Hg2 mi
2:30 am66 °FHaze.7 mph88%29.80 "Hg2 mi
1:30 am66 °FHaze.7 mph88%29.83 "Hg2 mi
12:30 am66 °FHaze.7 mph88%29.86 "Hg4 mi
11:30 pm
Fri, May 24
66 °FHaze.7 mph88%29.86 "Hg4 mi
10:30 pm66 °FHaze.7 mph88%29.89 "Hg4 mi
9:30 pm68 °FHaze.7 mph78%29.89 "Hg4 mi
Weather by CustomWeather, © 2019

See weather overview